Regional Weather Roundup
Issued by NWS

Home | Current Version | Previous Version | Text Only | Print | Product List | Glossary Off
Versions: 1 2 3 4 5 6 7 8 9 10 11 12 13 14 15 16 17 18 19 20 21 22 23 24 25 26 27 28 29 30 31 32 33 34 35 36 37 38 39 40 41 42 43 44 45 46 47 48 49 50

000
ASUS43 KLSX 180007
RWRMO

WEATHER SUMMARY FOR MISSOURI
NATIONAL WEATHER SERVICE SPRINGFIELD MO
600 PM CST WED JAN 17 2018

NOTE: "FAIR" INDICATES FEW OR NO CLOUDS BELOW 12,000 FEET WITH NO
       SIGNIFICANT WEATHER AND/OR OBSTRUCTIONS TO VISIBILITY.
       CURRENT SKY AND/OR WEATHER CONDITIONS ARE NOT AVAILABLE FOR
       CHILLICOTHE AND FARMINGTON.

MOZ001>031-035>038-043-044-053-054-180100-
...NORTHERN AND WESTERN MISSOURI...

CITY           SKY/WX    TMP DP  RH WIND       PRES   REMARKS
KANSAS CTY INT CLOUDY    19  10  68 SW12      30.48F WCI   7
6HR MIN TEMP:  18; 6HR MAX TEMP:  24;

KANSAS C DTWN  CLOUDY    22   9  57 S9        30.51F WCI  12
6HR MIN TEMP:  21; 6HR MAX TEMP:  27;

LEE`S SUMMIT   CLOUDY    20   9  62 SW10      30.50F WCI   9
6HR MIN TEMP:  19; 6HR MAX TEMP:  24;

ST JOSEPH      CLOUDY    21  11  65 S12       30.48F WCI   9
6HR MIN TEMP:  20; 6HR MAX TEMP:  25;

CHILLICOTHE      N/A     21  10  62 S7        30.50F WCI  12
6HR MIN TEMP:  18; 6HR MAX TEMP:  26;

KIRKSVILLE     CLOUDY    19  12  74 SW9       30.47F WCI   8
6HR MIN TEMP:  17; 6HR MAX TEMP:  22;


$$
MOZ066>068-077>081-088>096-101>105-180100-
...SOUTHWEST MISSOURI...

CITY           SKY/WX    TMP DP  RH WIND       PRES   REMARKS
SPRINGFIELD    CLOUDY    17   6  62 CALM      30.53F
6HR MIN TEMP:  13; 6HR MAX TEMP:  21;

JOPLIN         CLOUDY    20   9  62 S3        30.56F
6HR MIN TEMP:  14; 6HR MAX TEMP:  22; 6HR PCP: TRACE;

BRANSON        CLEAR     16   9  73 CALM      30.55F

$$
MOZ032>034-039>042-045>050-055>058-069>072-180100-
...CENTRAL MISSOURI...

CITY           SKY/WX    TMP DP  RH WIND       PRES   REMARKS
COLUMBIA       CLOUDY    15   8  73 S7        30.53F WCI   5
6HR MIN TEMP:  14; 6HR MAX TEMP:  23;

JEFFERSON CITY CLOUDY    23   9  55 S5        30.56F WCI  17
6HR MIN TEMP:  14; 6HR MAX TEMP:  24; 6HR PCP: TRACE;

ROLLA          CLOUDY    16   7  67 SW7       30.53F WCI   6
6HR MIN TEMP:  14; 6HR MAX TEMP:  22;

SEDALIA        CLOUDY    20  11  68 SW7       30.53F WCI  11
6HR MIN TEMP:  16; 6HR MAX TEMP:  22;

WHITEMAN AFB   CLEAR     15   7  71 SW9       30.49F WCI   3
WARRENSBURG    CLOUDY    19  10  68 S7        30.54F WCI  10
OSAGE BEACH    CLOUDY    21   9  59 SW6       30.56F WCI  13

$$
MOZ051-052-059>065-180100-
...EAST CENTRAL MISSOURI...

CITY           SKY/WX    TMP DP  RH WIND       PRES   REMARKS
ST LOUIS INTL  PTCLDY    21  10  62 W6        30.56F WCI  13
6HR MIN TEMP:  18; 6HR MAX TEMP:  25;

SPIRIT OF STL  CLEAR     19  10  68 SW3       30.56S
6HR MIN TEMP:  18; 6HR MAX TEMP:  25;

ST CHARLES     CLOUDY    21   9  59 W6        30.56F WCI  13
6HR MIN TEMP:  15; 6HR MAX TEMP:  24;


$$
MOZ072>076-082>087-097>100-106>115-180100-
...SOUTH CENTRAL AND SOUTHEAST MISSOURI...

CITY           SKY/WX    TMP DP  RH WIND       PRES   REMARKS
CAPE GIRARDEAU FAIR      12   5  73 S6        30.63F WCI   3
6HR MIN TEMP:  12; 6HR MAX TEMP:  22;

FARMINGTON     CLEAR     22  10  60 SW5       30.54F WCI  16
6HR MIN TEMP:  22; 6HR MAX TEMP:  30;

POPLAR BLUFF   FAIR      16   9  74 S5        30.63F WCI   9
6HR MIN TEMP:  16; 6HR MAX TEMP:  20;

WEST PLAINS    CLOUDY    20   7  57 SW3       30.56F
6HR MIN TEMP:  19; 6HR MAX TEMP:  25;


$$



USA.gov is the U.S. government's official web portal to all federal, state and local government web resources and services.